Greater Kankakee Airport Kankakee US
ICAO: KIKK
IATA: IKK
Category: Medium
Scheduled Services: No

Elevation: 630 ft
TransAlt. 18000 ft.

Airport Communications:
AWOS 3:111.6
CHICAGO CNTR:132.5
KANKAKEE RDO:122.2
CTAF/UNICOM:123

KIKK Zoom In..

If you have problems with the map follow the link
https://www.worldairports.se/pages/airport.php?
ICAO=KIKK

Runways:

(A) RW 04 length 5981 ft width 100 ft
ILS 108.70 / hdg 38

(B) RW 16 length 4398 ft width 75 ft
---- / hdg 161

(C) RW 22 length 5981 ft width 100 ft
---- / hdg 218

(D) RW 34 length 4398 ft width 75 ft
---- / hdg 341

Location; KIKK
Day. 17 / Time. 03.15 Zulu
* Altimeter: 30.14
* Temperature: 01° c. 33.8°f.
* Wind from: 000° Speed 00 kn.
Dewpoint: -01° c.
Visibility: 10 Statute Miles.
Clouds: Overcast 1500 ft.

KIKK 170315Z AUTO 00000KT 10SM OVC015 01/M01 A3014 RMK AO2 T00111013


Wind - Calm.

 
 
jpsmedia.com for Web Design worldairports.se 2018   terms of use